Theta_e
316 311 308 309 307 308 308 308 308 309 310 310 309 309 309 309 309 309 309 310 311 310 312 314 313 313 315 316 316 316 311 312 313 313 315 312 314 314 315 315 317 320 318 319 322
316 315 308 308 308 308 308 309 309 309 309 309 309 309 308 309 309 309 310 310 310 310 312 314 312 314 315 315 315 313 311 311 311 311 312 312 314 315 315 315 315 317 318 318 322
315 316 311 308 308 308 308 309 309 309 309 309 308 309 308 308 308 309 310 310 310 310 312 314 312 314 314 314 313 312 313 311 311 312 313 313 313 314 314 313 316 317 317 318 322
315 315 315 308 308 308 308 308 308 308 308 308 308 308 308 308 306 310 310 310 310 311 312 312 312 313 311 311 312 312 311 311 311 312 313 312 313 313 314 316 316 317 316 317 320
315 315 315 313 308 308 308 308 308 308 308 308 308 307 307 307 308 310 311 309 310 312 312 312 312 312 310 311 311 310 310 310 311 311 311 312 312 312 313 316 316 315 315 317 318
314 315 315 310 307 308 308 307 308 308 307 307 307 307 307 307 308 308 311 311 311 311 311 311 312 312 311 311 310 310 310 310 311 311 311 310 309 310 311 312 312 314 315 315 317
314 315 314 309 307 307 307 307 307 307 307 307 307 307 307 308 309 309 311 312 311 310 311 311 312 312 312 310 311 310 310 309 310 310 311 311 309 309 312 311 312 312 314 315 316
315 314 313 308 307 307 307 307 307 307 307 307 307 307 307 307 308 310 310 311 312 310 310 311 312 312 311 311 310 308 307 310 308 310 310 309 309 307 309 310 311 311 312 313 315
315 315 314 309 307 307 307 307 307 306 306 306 307 307 307 307 308 309 310 310 311 311 311 311 312 312 311 308 308 306 308 309 309 308 309 308 309 307 311 311 311 311 310 311 312
313 314 314 313 309 307 307 307 306 306 307 307 308 308 307 308 308 308 309 310 311 312 312 312 312 306 304 306 308 309 309 307 308 308 309 309 308 306 310 310 311 312 312 312 312
312 312 314 313 310 308 307 307 307 308 309 308 308 307 307 309 309 309 309 310 311 312 309 309 308 308 308 307 307 307 307 307 307 308 310 308 307 308 309 310 311 312 313 314 314
318 312 313 311 309 309 307 307 307 307 308 307 308 308 309 310 311 310 309 310 310 307 307 307 307 307 307 304 306 307 308 308 308 309 309 308 308 307 307 309 312 313 313 313 314
318 315 310 311 309 310 308 307 307 308 308 307 308 309 310 310 310 311 310 309 306 305 306 306 307 306 306 306 307 306 306 307 308 307 305 304 305 306 306 306 309 311 312 312 312
317 318 313 311 311 311 308 310 310 310 307 309 309 308 309 311 310 310 310 309 306 305 304 306 305 305 306 306 306 307 305 306 307 308 307 305 307 305 305 304 305 310 310 310 310
316 315 315 310 311 311 308 313 310 308 310 307 310 308 310 310 308 310 310 310 305 305 304 305 305 305 306 306 305 307 304 306 307 306 307 307 308 305 304 307 307 307 308 309 313
315 315 317 311 310 309 308 312 309 310 307 307 310 309 309 309 309 309 310 310 307 306 306 305 306 305 305 304 305 304 305 305 304 305 308 305 306 304 305 306 307 307 309 309 313
315 316 316 311 310 309 309 310 309 311 306 311 311 308 309 308 309 308 309 307 306 306 307 308 308 307 307 306 306 306 306 308 309 308 308 304 305 306 305 303 304 305 307 311 313
316 316 316 313 310 309 308 309 313 306 307 311 310 308 308 309 310 309 309 309 307 305 305 306 308 307 306 306 307 305 306 308 308 309 307 305 307 307 304 305 307 309 310 313 312
315 316 314 312 311 309 309 312 312 305 308 311 309 310 310 309 309 309 309 310 309 304 307 306 307 308 307 306 308 308 308 305 305 295 306 305 305 305 305 305 308 309 311 312 313
314 314 313 311 311 309 310 312 310 306 311 310 312 309 310 309 310 309 309 307 307 305 306 307 308 308 308 308 309 307 306 308 305 304 306 305 305 308 307 308 309 309 310 311 311
311 310 310 311 310 310 310 310 309 311 313 313 312 311 310 310 310 311 310 308 307 306 306 306 308 310 308 308 308 307 307 306 306 306 307 305 306 302 306 305 307 308 310 311 312
306 306 309 311 308 307 309 310 310 311 314 313 313 313 310 310 311 310 309 307 308 307 309 307 308 310 309 307 308 308 307 307 309 307 305 306 308 306 303 306 309 309 311 311 311
301 302 306 308 305 306 307 310 311 313 314 313 313 313 314 311 312 310 309 310 308 308 309 308 308 304 307 307 308 309 307 306 306 306 308 308 310 305 305 306 309 310 311 312 312
300 304 303 302 302 307 310 311 313 312 313 313 313 313 314 315 314 313 312 312 311 310 311 310 309 309 310 309 309 311 308 307 309 309 310 308 309 309 307 307 308 311 312 312 311
300 300 300 304 303 305 308 311 312 313 312 313 313 313 313 316 315 315 313 313 312 313 311 310 310 308 308 308 308 308 309 309 310 310 310 310 308 306 307 307 310 312 311 311 310
298 298 299 300 305 306 306 306 311 311 311 311 311 313 313 313 314 315 314 314 314 312 312 311 312 309 308 309 311 312 309 308 309 310 310 309 308 304 308 308 309 311 311 310 309
297 297 299 298 304 305 306 307 308 309 309 310 310 312 313 312 311 312 312 313 312 312 312 311 310 313 315 310 311 314 312 310 309 308 308 310 310 307 307 307 309 311 310 310 309
Wind_Speed
20 22 23 22 23 22 22 21 21 19 18 14 12 11 10 9 11 13 14 10 6 8 8 10 10 9 8 6 5 4 4 2 3 5 3 10 5 5 5 5 8 10 4 3 18
20 20 23 23 23 22 22 21 20 19 18 15 13 11 10 9 11 16 12 10 9 7 8 9 11 12 8 5 4 4 4 8 5 4 2 8 6 12 6 6 7 8 9 6 18
22 21 23 24 23 22 21 20 20 19 17 16 13 11 9 7 7 9 13 13 9 10 8 10 8 7 5 7 4 3 5 5 5 3 3 7 4 8 8 3 11 15 14 11 18
23 22 22 25 24 23 22 21 20 19 17 15 14 12 10 8 6 4 10 14 12 11 11 11 12 5 3 5 5 5 3 5 6 5 5 7 7 4 10 5 2 9 10 15 19
26 24 24 23 26 24 22 20 20 18 16 15 13 11 10 8 7 2 4 13 14 13 13 12 13 6 5 5 6 3 4 6 4 6 4 4 3 4 11 13 11 8 10 17 19
26 26 24 26 27 25 24 22 20 17 16 13 12 11 11 6 7 6 2 11 14 14 14 13 8 6 6 4 3 5 5 5 3 3 2 2 2 2 5 9 15 18 12 16 21
25 26 26 27 26 25 25 22 20 18 15 13 12 11 12 12 4 8 8 9 14 13 15 14 5 6 9 6 5 7 4 3 2 1 1 1 4 7 14 10 7 14 17 14 18
22 25 26 27 26 25 23 21 19 17 15 14 11 11 8 11 10 7 9 10 13 13 12 14 9 7 3 12 5 4 5 3 1 4 1 4 8 5 3 8 13 16 15 19 19
23 24 21 26 26 25 22 19 18 16 15 14 12 8 5 8 13 11 11 9 13 13 11 13 12 6 7 5 4 6 4 2 4 3 2 3 6 5 2 2 5 9 17 15 18
22 25 22 23 25 25 22 18 17 15 13 11 7 6 9 8 14 17 13 13 10 14 12 8 5 4 4 3 5 4 3 2 4 2 2 2 9 8 12 12 15 14 10 13 19
24 24 24 25 27 27 27 23 13 6 18 6 11 4 6 12 14 17 17 18 14 11 5 2 4 6 7 5 3 5 3 5 2 2 2 5 7 14 17 15 21 24 22 21 21
29 27 26 25 28 28 29 19 20 7 7 17 7 14 6 12 8 19 21 12 8 5 6 5 5 8 7 8 5 4 4 2 1 2 3 4 10 12 12 14 23 25 26 24 24
31 27 26 27 27 28 33 18 18 12 5 10 21 12 8 14 6 22 25 13 5 6 6 7 3 12 8 5 7 4 6 4 4 1 2 4 7 7 4 7 15 22 29 30 28
27 31 29 29 29 32 35 17 17 10 4 4 8 10 18 10 5 15 25 11 3 8 7 3 3 7 5 5 5 5 7 5 4 3 3 2 5 5 6 9 7 23 21 18 16
26 28 33 38 24 35 36 20 18 10 1 5 7 10 17 13 13 12 24 10 10 8 8 6 9 7 5 6 7 6 6 7 3 4 2 2 1 6 2 6 10 6 6 3 4
29 31 39 40 30 36 34 23 21 4 9 5 7 10 8 8 5 8 10 8 7 5 2 3 3 5 7 4 4 10 7 7 4 3 2 6 6 4 5 7 3 3 5 2 4
32 35 46 48 38 33 41 26 4 5 2 7 6 6 9 7 5 6 8 7 7 6 4 1 2 3 5 7 5 3 7 2 1 1 5 3 2 7 7 8 5 5 8 4 2
30 36 55 51 38 41 45 9 5 5 8 3 5 9 7 6 3 7 12 9 7 5 4 8 4 8 4 7 9 7 7 6 8 4 3 2 7 7 6 7 9 8 7 4 4
24 44 47 44 37 51 37 9 11 7 9 9 5 7 6 5 6 5 10 15 15 10 8 6 5 0 2 5 10 5 6 4 7 3 3 5 7 9 9 7 5 7 6 6 5
23 25 21 54 48 53 19 16 6 6 7 6 7 6 10 9 7 8 10 6 7 10 1 7 4 1 3 5 1 7 9 4 2 4 4 5 5 8 1 6 6 6 3 4 5
18 9 9 57 58 34 11 8 5 7 9 6 7 6 7 9 8 9 11 4 10 9 5 6 4 1 4 7 10 3 4 3 5 5 6 2 7 7 10 7 8 6 7 7 6
7 4 16 50 8 7 10 7 8 6 4 3 3 4 7 10 9 9 13 8 15 18 15 7 5 4 8 2 2 3 7 7 6 6 2 3 9 3 5 7 12 11 10 10 9
5 4 7 22 5 7 4 7 6 6 6 5 4 2 2 7 6 8 7 3 11 13 15 9 3 3 5 3 2 4 3 4 5 3 7 6 12 1 5 7 12 12 10 8 7
2 2 3 5 3 6 6 7 7 5 5 5 4 5 4 4 3 6 4 1 6 4 9 17 4 12 14 5 7 6 7 7 9 3 11 11 14 1 5 7 10 13 11 8 8
1 1 1 4 4 4 4 9 9 6 4 9 3 8 7 4 8 6 4 3 2 6 3 6 8 6 3 5 4 6 9 14 16 21 10 29 15 10 12 13 24 20 15 12 10
3 2 2 2 12 8 5 5 7 7 6 5 4 14 10 7 10 11 9 5 4 2 4 2 2 3 3 6 5 2 6 14 23 21 20 13 19 8 20 14 13 18 14 12 10
5 4 2 4 2 4 4 6 7 8 1 5 11 3 8 5 8 9 11 13 9 7 4 6 5 4 8 8 5 6 25 11 6 6 10 16 19 6 5 12 24 26 15 13 14
Wind_Direction
217 208 207 203 198 197 193 192 189 188 194 204 203 208 222 233 240 244 241 229 218 221 207 190 176 173 159 148 125 121 70 137 203 158 203 163 159 170 180 160 179 195 221 188 177
215 215 206 205 198 196 194 189 192 188 189 200 202 203 213 229 247 248 236 230 224 211 203 193 184 168 150 140 114 93 109 198 193 189 207 184 184 168 168 183 196 214 221 203 179
220 211 203 204 199 196 193 193 191 192 193 196 200 204 212 219 254 251 233 223 216 214 193 191 192 174 142 144 134 132 164 189 183 211 166 176 193 182 161 220 213 213 217 202 186
214 213 205 199 197 195 193 194 195 194 196 198 201 198 198 192 205 211 216 202 200 203 188 182 179 178 115 134 149 120 164 166 145 147 148 163 158 194 214 223 217 226 221 218 202
209 212 210 202 195 194 191 195 197 196 199 201 203 202 194 206 235 219 201 194 193 194 190 183 176 155 148 133 129 126 154 165 144 135 129 149 215 224 242 238 242 258 229 221 220
208 209 211 200 193 193 192 192 193 196 197 200 206 204 197 215 230 221 180 192 195 187 189 183 193 171 122 141 138 152 120 133 152 140 127 157 233 244 248 238 241 241 237 224 227
207 209 210 199 193 192 192 193 189 193 191 198 204 205 214 222 223 204 195 186 195 192 186 183 171 171 149 123 123 120 107 69 62 31 44 61 296 229 247 249 242 235 229 228 229
207 211 210 197 194 192 190 191 190 190 188 192 197 200 226 227 223 199 190 181 181 183 184 179 169 151 115 126 57 81 52 113 274 144 259 127 262 275 240 255 244 245 235 233 233
209 208 209 194 191 188 187 188 187 186 186 184 187 187 232 213 210 200 188 184 170 170 165 165 157 124 127 102 55 12 172 155 319 203 125 150 255 271 234 322 286 263 247 241 240
209 204 203 190 183 181 179 179 177 181 174 164 178 186 231 204 199 194 184 172 153 154 142 153 123 88 48 98 184 177 161 176 222 170 95 183 257 268 262 279 282 281 267 247 245
211 203 199 188 181 178 171 156 149 160 176 180 185 186 171 176 185 188 183 170 156 155 139 127 109 174 176 187 120 137 137 169 215 25 194 237 262 275 277 275 276 272 266 260 256
198 198 197 192 188 179 175 175 178 173 169 205 204 199 165 173 166 182 177 163 150 156 118 53 203 200 146 142 128 134 136 218 58 45 197 339 286 272 263 255 261 267 269 260 258
195 193 194 189 186 185 182 182 165 142 113 202 217 206 184 187 196 190 183 167 127 134 174 158 214 160 137 149 142 152 158 174 184 182 70 338 287 280 305 271 268 260 261 265 267
191 196 191 184 183 189 189 171 161 147 83 216 199 225 197 175 236 190 186 166 94 163 137 204 101 138 121 163 129 184 200 154 141 108 233 359 280 302 278 293 277 271 270 279 283
214 205 194 192 183 187 181 145 149 137 166 212 172 190 187 169 143 182 178 180 154 159 133 227 159 150 159 192 160 210 125 142 118 111 55 329 342 263 287 279 264 269 281 257 299
212 209 199 191 189 192 171 145 142 79 230 210 146 168 137 159 146 127 167 163 129 105 63 169 189 155 172 74 135 150 85 53 57 97 285 204 178 249 199 213 258 155 142 347 349
210 210 201 192 185 180 157 146 108 191 196 188 184 169 157 153 128 149 170 165 151 119 166 105 201 174 136 87 34 73 108 44 7 360 230 333 170 245 250 232 226 252 294 309 308
206 200 196 194 187 165 161 136 189 201 207 115 123 120 184 134 179 160 147 188 246 127 135 159 230 168 181 168 166 193 161 160 190 194 229 61 232 255 243 268 268 275 280 276 215
210 196 189 185 175 166 159 191 210 177 162 146 79 148 188 207 137 143 190 199 193 185 163 154 241 96 140 153 147 203 214 156 103 21 62 219 284 288 260 266 252 237 230 240 216
183 188 176 189 183 168 169 206 213 179 137 163 155 176 171 178 153 192 171 194 201 182 200 201 123 358 168 114 34 167 153 84 5 138 229 261 269 230 161 201 204 205 193 196 182
178 152 175 168 167 170 193 202 188 206 161 156 165 152 173 169 176 195 203 214 187 179 153 147 109 357 127 216 167 149 177 93 130 160 177 233 254 215 208 194 189 181 154 145 153
118 140 146 164 152 179 187 182 172 163 182 144 121 114 162 158 169 198 208 215 190 152 192 179 125 152 201 290 346 354 185 158 172 214 234 150 258 173 201 187 165 160 150 135 125
99 120 114 163 142 173 150 173 182 156 172 164 123 120 179 160 163 192 180 202 175 174 171 174 201 82 357 342 358 208 199 138 102 83 195 149 260 341 121 150 172 168 168 154 136
109 138 113 132 169 145 151 165 161 176 154 136 123 121 134 143 63 164 146 183 175 175 156 161 135 204 210 184 139 189 193 189 193 169 224 226 240 209 208 203 212 202 195 188 182
151 18 124 151 179 155 129 160 174 153 155 176 196 209 188 171 184 186 139 136 65 158 85 144 203 193 171 133 129 188 185 197 204 221 190 244 232 198 202 200 210 201 200 195 190
143 209 70 59 157 150 168 166 163 147 159 152 157 180 171 186 206 198 158 181 175 183 142 60 177 121 273 154 148 185 224 209 214 226 237 259 259 165 207 200 196 201 199 201 195
151 129 96 355 117 135 166 154 174 126 89 156 160 136 174 160 159 176 180 153 154 144 150 142 134 140 230 165 108 264 223 202 199 201 209 228 244 162 179 195 209 210 210 208 197